Location: Althorst
(53.6379°N, 10.7715°E)
Time: 22:45:02
(UTC+00:00)

CSL-04 Rocket - Pass Details

Date: 10 December 2019
Orbit: 807 x 859 km, 99.0° (Epoch: 24 January)

Event Time Altitude Azimuth Distance (km) Brightness Sun altitude
Rises 16:25:40 0° 130° (SE) 3,318 6.5 -12.1°
Reaches altitude 10° 16:28:11 10° 121° (ESE) 2,391 5.7 -12.4°
Maximum altitude 16:32:50 33° 59° (ENE) 1,352 4.2 -13.1°
Drops below altitude 10° 16:37:32 10° 357° (N) 2,419 5.9 -13.7°
Sets 16:40:05 0° 348° (NNW) 3,362 6.7 -14.1°
